Weather History for Richmond, KY

Change the Weather History Date:

Thursday, May 29, 2014

  Actual Average (KLOZ) Record (KLOZ)
Temperature  
Mean Temperature 72 °F 68 °F  
Max Temperature 82 °F 79 °F 90 °F (1987)
Min Temperature 62 °F 57 °F 43 °F (1968)
Degree Days  
Heating Degree Days 0 1  
Month to date heating degree days 92  
Since 1 July heating degree days 4193  
Cooling Degree Days 7 5  
Month to date cooling degree days 78  
Year to date cooling degree days 104  
Growing Degree Days 22 (Base 50)    
Moisture  
Dew Point 64 °F    
Average Humidity 77    
Maximum Humidity 94    
Minimum Humidity 48    
Precipitation  
Precipitation 0.00 in 0.18 in 1.46 in (1992)
Month to date precipitation 4.84  
Year to date precipitation 20.19  
Sea Level Pressure  
Sea Level Pressure 30.05 in    
Wind  
Wind Speed 2 mph (SSE)    
Max Wind Speed 8 mph    
Max Gust Speed -    
Visibility 9 miles    
Events      
T = Trace of Precipitation, MM = Missing Value Source: NWS Daily Summary

Daily Weather History Graph

Daily Weather History Graph

Search for Another Location

Airport:

Trip Planner

Search our weather history database for the weather conditions in past years. The results will help you decide how hot, cold, wet, or windy it might be!

Date:

Astronomy

May. 29, 2014 Rise Set
Actual Time 6:18 AM EDT 8:51 PM EDT
Civil Twilight 5:48 AM EDT 9:21 PM EDT
Nautical Twilight 5:10 AM EDT 9:59 PM EDT
Astronomical Twilight 4:28 AM EDT 10:41 PM EDT
Moon 7:10 AM EDT (5/29) 9:41 PM EDT (5/29)
Length of Visible Light 15h 33m
Length of Day
14h 32m
New Moon, 1% of the Moon is Illuminated
May 29
New Moon
Jun 5
First Quarter
Jun 13
Full
Jun 19
Last Quarter
Jun 27
New

Hourly Weather History & Observations

Time (EDT) Temp. Heat Index Dew Point Humidity Pressure Visibility Wind Dir Wind Speed Gust Speed Precip Events Conditions
12:15 AM 68.0 °F - 64.4 °F 88% 30.05 in 10.0 mi SSW 3.5 mph - N/A   Clear
12:35 AM 68.0 °F - 64.4 °F 88% 30.05 in 10.0 mi SW 4.6 mph - N/A   Clear
12:55 AM 68.0 °F - 64.4 °F 88% 30.05 in 7.0 mi South 3.5 mph - N/A   Scattered Clouds
1:15 AM 68.0 °F - 64.4 °F 88% 30.04 in 10.0 mi Calm Calm - N/A   Scattered Clouds
1:35 AM 68.0 °F - 62.6 °F 83% 30.04 in 10.0 mi SSW 3.5 mph - N/A   Clear
1:55 AM 68.0 °F - 62.6 °F 83% 30.03 in 10.0 mi SSW 3.5 mph - N/A   Clear
2:15 AM 66.2 °F - 62.6 °F 88% 30.02 in 10.0 mi SSE 3.5 mph - N/A   Clear
2:35 AM 66.2 °F - 62.6 °F 88% 30.01 in 10.0 mi SE 3.5 mph - N/A   Clear
2:55 AM 64.4 °F - 62.6 °F 94% 30.01 in 5.0 mi Calm Calm - N/A   Clear
3:15 AM 64.4 °F - 62.6 °F 94% 30.00 in 7.0 mi Calm Calm - N/A   Clear
3:35 AM 64.4 °F - 62.6 °F 94% 30.00 in 7.0 mi Calm Calm - N/A   Clear
3:55 AM 62.6 °F - 60.8 °F 94% 30.01 in 4.0 mi SSE 3.5 mph - N/A   Clear
4:15 AM 62.6 °F - 60.8 °F 94% 30.01 in 5.0 mi SSE 3.5 mph - N/A   Clear
4:35 AM 64.4 °F - 62.6 °F 94% 30.01 in 7.0 mi South 3.5 mph - N/A   Clear
5:15 AM 64.4 °F - 60.8 °F 88% 30.02 in 10.0 mi Calm Calm - N/A   Scattered Clouds
5:35 AM 62.6 °F - 60.8 °F 94% 30.03 in 7.0 mi Calm Calm - N/A   Scattered Clouds
5:55 AM 62.6 °F - 60.8 °F 94% 30.03 in 5.0 mi Calm Calm - N/A   Scattered Clouds
6:15 AM 62.6 °F - 60.8 °F 94% 30.04 in 5.0 mi Calm Calm - N/A   Mostly Cloudy
6:35 AM 62.6 °F - 60.8 °F 94% 30.05 in 3.0 mi Calm Calm - N/A   Scattered Clouds
6:55 AM 62.6 °F - 60.8 °F 94% 30.05 in 3.0 mi East 3.5 mph - N/A   Scattered Clouds
7:15 AM 62.6 °F - 60.8 °F 94% 30.06 in 4.0 mi Calm Calm - N/A   Overcast
7:35 AM 64.4 °F - 62.6 °F 94% 30.06 in 5.0 mi ESE 3.5 mph - N/A   Mostly Cloudy
7:55 AM 64.4 °F - 62.6 °F 94% 30.07 in 7.0 mi Calm Calm - N/A   Clear
8:15 AM 64.4 °F - 62.6 °F 94% 30.07 in 7.0 mi East 3.5 mph - N/A   Clear
8:35 AM 66.2 °F - 62.6 °F 88% 30.07 in 7.0 mi ESE 3.5 mph - N/A   Clear
8:55 AM 66.2 °F - 62.6 °F 88% 30.08 in 10.0 mi Calm Calm - N/A   Clear
9:15 AM 68.0 °F - 64.4 °F 88% 30.08 in 7.0 mi Calm Calm - N/A   Clear
9:35 AM 68.0 °F - 64.4 °F 88% 30.09 in 10.0 mi Calm Calm - N/A   Clear
9:55 AM 69.8 °F - 64.4 °F 83% 30.09 in 10.0 mi Calm Calm - N/A   Clear
10:15 AM 71.6 °F - 64.4 °F 78% 30.09 in 10.0 mi Calm Calm - N/A   Clear
10:35 AM 73.4 °F - 66.2 °F 78% 30.08 in 10.0 mi Calm Calm - N/A   Clear
10:55 AM 75.2 °F - 64.4 °F 69% 30.08 in 10.0 mi Calm Calm - N/A   Clear
11:15 AM 77.0 °F - 66.2 °F 69% 30.09 in 10.0 mi Calm Calm - N/A   Clear
11:35 AM 78.8 °F - 64.4 °F 61% 30.09 in 10.0 mi West 3.5 mph - N/A   Scattered Clouds
11:55 AM 77.0 °F - 64.4 °F 65% 30.10 in 10.0 mi Calm Calm - N/A   Scattered Clouds
12:15 PM 78.8 °F - 64.4 °F 61% 30.10 in 10.0 mi Calm Calm - N/A   Clear
12:35 PM 78.8 °F - 66.2 °F 65% 30.10 in 10.0 mi Calm Calm - N/A   Clear
12:55 PM 78.8 °F - 66.2 °F 65% 30.09 in 10.0 mi NNW 3.5 mph - N/A   Scattered Clouds
1:15 PM 78.8 °F - 64.4 °F 61% 30.09 in 10.0 mi Calm Calm - N/A   Scattered Clouds
1:35 PM 78.8 °F - 64.4 °F 61% 30.08 in 10.0 mi Calm Calm - N/A   Scattered Clouds
2:15 PM 78.8 °F - 66.2 °F 65% 30.07 in 10.0 mi North 4.6 mph - N/A   Clear
2:35 PM 80.6 °F 82.7 °F 66.2 °F 61% 30.06 in 10.0 mi Calm Calm - N/A   Clear
2:55 PM 80.6 °F 82.7 °F 66.2 °F 61% 30.05 in 10.0 mi WSW 4.6 mph - N/A   Clear
3:15 PM 82.4 °F 84.6 °F 66.2 °F 58% 30.05 in 10.0 mi NW 3.5 mph - N/A   Clear
3:35 PM 80.6 °F 82.3 °F 64.4 °F 58% 30.04 in 10.0 mi NNW 3.5 mph - N/A   Clear
3:55 PM 80.6 °F 82.3 °F 64.4 °F 58% 30.04 in 10.0 mi NNE 4.6 mph - N/A   Clear
4:15 PM 82.4 °F 83.9 °F 64.4 °F 54% 30.04 in 10.0 mi NNW 4.6 mph - N/A   Clear
4:35 PM 82.4 °F 83.4 °F 62.6 °F 51% 30.03 in 10.0 mi Calm Calm - N/A   Clear
4:55 PM 80.6 °F 81.8 °F 62.6 °F 54% 30.04 in 10.0 mi North 4.6 mph - N/A   Clear
5:15 PM 82.4 °F 83.4 °F 62.6 °F 51% 30.04 in 10.0 mi Calm Calm - N/A   Clear
5:35 PM 82.4 °F 82.9 °F 60.8 °F 48% 30.03 in 10.0 mi North 4.6 mph - N/A   Clear
5:55 PM 82.4 °F 83.4 °F 62.6 °F 51% 30.03 in 10.0 mi Calm Calm - N/A   Clear
6:15 PM 82.4 °F 84.6 °F 66.2 °F 58% 30.03 in 10.0 mi North 4.6 mph - N/A   Clear
6:35 PM 82.4 °F 84.6 °F 66.2 °F 58% 30.03 in 10.0 mi NE 5.8 mph - N/A   Clear
6:55 PM 80.6 °F 82.7 °F 66.2 °F 61% 30.03 in 10.0 mi East 5.8 mph - N/A   Clear
7:15 PM 78.8 °F - 64.4 °F 61% 30.03 in 10.0 mi South 6.9 mph - N/A   Scattered Clouds
7:35 PM 75.2 °F - 64.4 °F 69% 30.04 in 10.0 mi South 8.1 mph - N/A   Clear
7:55 PM 75.2 °F - 64.4 °F 69% 30.05 in 10.0 mi SSW 4.6 mph - N/A   Clear
8:15 PM 73.4 °F - 66.2 °F 78% 30.04 in 10.0 mi Calm Calm - N/A   Clear
8:35 PM 73.4 °F - 66.2 °F 78% 30.04 in 7.0 mi Calm Calm - N/A   Clear
8:55 PM 71.6 °F - 66.2 °F 83% 30.05 in 10.0 mi SW 3.5 mph - N/A   Clear
9:15 PM 71.6 °F - 64.4 °F 78% 30.05 in 10.0 mi Calm Calm - N/A   Clear
9:55 PM 69.8 °F - 66.2 °F 88% 30.06 in 10.0 mi SSE 3.5 mph - N/A   Clear
10:15 PM 69.8 °F - 64.4 °F 83% 30.06 in 10.0 mi Calm Calm - N/A   Clear
10:35 PM 69.8 °F - 64.4 °F 83% 30.07 in 10.0 mi Calm Calm - N/A   Clear
10:55 PM 68.0 °F - 64.4 °F 88% 30.07 in 10.0 mi Calm Calm - N/A   Clear
11:15 PM 69.8 °F - 64.4 °F 83% 30.07 in 10.0 mi SSE 3.5 mph - N/A   Clear
11:35 PM 68.0 °F - 64.4 °F 88% 30.07 in 10.0 mi Calm Calm - N/A   Clear